| time (UTC) | temp F | wind direction | speed MPH | gust MPH | rain 1hr in | rain 24hr in | rain mn in | humidity % | barometer mb |
| 20260507232206 | 44 | 89 | 0.0 | 2.0 | 0.00 | 0.13 | 0.09 | 89 | 1016.8 |
| 20260507231705 | 44 | 63 | 0.0 | 2.0 | 0.00 | 0.13 | 0.09 | 89 | 1016.8 |
| 20260507231206 | 45 | 117 | 1.0 | 3.0 | 0.00 | 0.13 | 0.09 | 89 | 1016.8 |
| 20260507230705 | 45 | 46 | 1.0 | 3.0 | 0.00 | 0.13 | 0.09 | 89 | 1016.7 |
| 20260507230205 | 45 | 28 | 1.0 | 3.0 | 0.00 | 0.13 | 0.09 | 89 | 1016.7 |
| 20260507225706 | 45 | 102 | 2.0 | 3.0 | 0.00 | 0.13 | 0.09 | 89 | 1016.7 |
| 20260507225205 | 45 | 46 | 2.0 | 4.0 | 0.00 | 0.14 | 0.09 | 89 | 1016.7 |
| 20260507224705 | 46 | 51 | 2.0 | 4.0 | 0.00 | 0.14 | 0.09 | 89 | 1016.7 |
| 20260507224208 | 46 | 50 | 1.0 | 3.0 | 0.00 | 0.15 | 0.09 | 89 | 1016.7 |
| 20260507223706 | 46 | 108 | 1.0 | 2.0 | 0.00 | 0.15 | 0.09 | 89 | 1016.7 |
| 20260507223206 | 46 | 331 | 1.0 | 2.0 | 0.00 | 0.16 | 0.09 | 89 | 1016.6 |
| 20260507222706 | 46 | 56 | 1.0 | 2.0 | 0.00 | 0.17 | 0.09 | 89 | 1016.5 |
| 20260507222206 | 46 | 68 | 1.0 | 2.0 | 0.00 | 0.17 | 0.09 | 89 | 1016.6 |
| 20260507221705 | 47 | 28 | 1.0 | 2.0 | 0.00 | 0.18 | 0.09 | 88 | 1016.6 |
| 20260507221205 | 47 | 35 | 1.0 | 2.0 | 0.00 | 0.19 | 0.09 | 88 | 1016.6 |
| 20260507220705 | 47 | 89 | 0.0 | 1.0 | 0.00 | 0.19 | 0.09 | 88 | 1016.5 |
| 20260507220205 | 47 | 46 | 0.0 | 2.0 | 0.00 | 0.20 | 0.09 | 88 | 1016.4 |
| 20260507215706 | 47 | 89 | 0.0 | 2.0 | 0.00 | 0.20 | 0.09 | 88 | 1016.4 |
| 20260507214705 | 47 | 89 | 1.0 | 2.0 | 0.00 | 0.22 | 0.09 | 88 | 1016.3 |
| 20260507214206 | 48 | 89 | 1.0 | 2.0 | 0.00 | 0.22 | 0.09 | 88 | 1016.2 |
| 20260507213705 | 48 | 63 | 2.0 | 2.0 | 0.00 | 0.22 | 0.09 | 88 | 1016.1 |
| 20260507212705 | 48 | 72 | 1.0 | 2.0 | 0.00 | 0.22 | 0.09 | 87 | 1016.1 |
| 20260507211705 | 48 | 72 | 0.0 | 1.0 | 0.00 | 0.23 | 0.09 | 87 | 1016.1 |
| 20260507211205 | 48 | 89 | 0.0 | 1.0 | 0.00 | 0.23 | 0.09 | 87 | 1016.0 |
| 20260507210206 | 49 | 20 | 0.0 | 2.0 | 0.00 | 0.23 | 0.09 | 87 | 1016.1 |
| 20260507205706 | 49 | 89 | 0.0 | 2.0 | 0.00 | 0.23 | 0.09 | 87 | 1016.2 |
| 20260507205205 | 49 | 63 | 1.0 | 2.0 | 0.00 | 0.23 | 0.09 | 86 | 1016.0 |
| 20260507204705 | 49 | 1 | 1.0 | 2.0 | 0.00 | 0.23 | 0.09 | 87 | 1016.0 |
| 20260507204206 | 49 | 28 | 0.0 | 1.0 | 0.00 | 0.23 | 0.09 | 86 | 1016.0 |
| 20260507203705 | 49 | 89 | 0.0 | 1.0 | 0.00 | 0.23 | 0.09 | 86 | 1015.9 |
| 20260507202205 | 49 | 46 | 0.0 | 2.0 | 0.00 | 0.23 | 0.09 | 86 | 1015.9 |
| 20260507201705 | 49 | 89 | 0.0 | 3.0 | 0.00 | 0.23 | 0.09 | 86 | 1015.7 |
| 20260507201205 | 49 | 72 | 1.0 | 3.0 | 0.00 | 0.24 | 0.09 | 86 | 1015.8 |
| 20260507200706 | 49 | 63 | 1.0 | 3.0 | 0.00 | 0.24 | 0.09 | 86 | 1015.7 |
| 20260507195705 | 49 | 58 | 1.0 | 3.0 | 0.00 | 0.25 | 0.09 | 85 | 1015.6 |
| 20260507195205 | 50 | 56 | 1.0 | 3.0 | 0.00 | 0.25 | 0.09 | 85 | 1015.6 |
| 20260507194206 | 50 | 63 | 0.0 | 1.0 | 0.00 | 0.26 | 0.09 | 85 | 1015.5 |
| 20260507193705 | 50 | 89 | 0.0 | 1.0 | 0.00 | 0.26 | 0.09 | 85 | 1015.5 |
| 20260507193206 | 50 | 89 | 0.0 | 2.0 | 0.00 | 0.26 | 0.09 | 85 | 1015.5 |
| 20260507192705 | 50 | 89 | 1.0 | 2.0 | 0.00 | 0.27 | 0.09 | 85 | 1015.5 |
| 20260507192207 | 50 | 46 | 1.0 | 2.0 | 0.00 | 0.29 | 0.09 | 84 | 1015.4 |
| 20260507191706 | 50 | 63 | 1.0 | 2.0 | 0.00 | 0.31 | 0.09 | 84 | 1015.3 |
| 20260507191205 | 51 | 46 | 1.0 | 2.0 | 0.00 | 0.33 | 0.09 | 84 | 1015.3 |
| 20260507190705 | 51 | 63 | 1.0 | 2.0 | 0.00 | 0.34 | 0.09 | 84 | 1015.3 |
| 20260507190206 | 51 | 51 | 1.0 | 2.0 | 0.00 | 0.34 | 0.09 | 84 | 1015.1 |
| 20260507185705 | 51 | 46 | 1.0 | 2.0 | 0.00 | 0.34 | 0.09 | 84 | 1015.1 |
| 20260507185205 | 51 | 46 | 1.0 | 3.0 | 0.00 | 0.34 | 0.09 | 84 | 1015.1 |
| 20260507184705 | 51 | 35 | 1.0 | 3.0 | 0.00 | 0.34 | 0.09 | 84 | 1015.0 |
| 20260507184206 | 51 | 1 | 1.0 | 4.0 | 0.00 | 0.34 | 0.09 | 84 | 1015.0 |
| 20260507183705 | 51 | 32 | 2.0 | 5.0 | 0.00 | 0.34 | 0.09 | 85 | 1015.0 |
| 20260507183205 | 52 | 13 | 2.0 | 5.0 | 0.00 | 0.34 | 0.09 | 85 | 1015.0 |
| 20260507182705 | 52 | 342 | 3.0 | 7.0 | 0.00 | 0.34 | 0.09 | 85 | 1015.0 |
| 20260507182206 | 52 | 32 | 3.0 | 7.0 | 0.00 | 0.34 | 0.09 | 85 | 1015.0 |
| 20260507181722 | 52 | 13 | 3.0 | 7.0 | 0.00 | 0.34 | 0.09 | 85 | 1015.0 |
| 20260507181205 | 52 | 351 | 2.0 | 6.0 | 0.00 | 0.34 | 0.09 | 85 | 1014.8 |
| 20260507180705 | 52 | 324 | 2.0 | 6.0 | 0.00 | 0.34 | 0.09 | 85 | 1014.8 |
| 20260507180205 | 52 | 324 | 2.0 | 5.0 | 0.00 | 0.34 | 0.09 | 85 | 1014.9 |
| 20260507175205 | 52 | 351 | 2.0 | 5.0 | 0.00 | 0.34 | 0.09 | 85 | 1014.9 |
| 20260507174705 | 52 | 295 | 2.0 | 5.0 | 0.00 | 0.34 | 0.09 | 85 | 1014.9 |
| 20260507174205 | 52 | 338 | 2.0 | 5.0 | 0.00 | 0.34 | 0.09 | 85 | 1014.8 |
| 20260507173707 | 52 | 269 | 2.0 | 6.0 | 0.00 | 0.34 | 0.09 | 85 | 1014.8 |
| 20260507173205 | 52 | 283 | 2.0 | 6.0 | 0.00 | 0.34 | 0.09 | 86 | 1014.8 |
| 20260507172206 | 52 | 250 | 3.0 | 7.0 | 0.00 | 0.34 | 0.09 | 85 | 1014.6 |
| 20260507171705 | 52 | 245 | 4.0 | 7.0 | 0.00 | 0.34 | 0.09 | 85 | 1014.7 |
| 20260507171205 | 52 | 248 | 5.0 | 7.0 | 0.00 | 0.34 | 0.09 | 85 | 1014.5 |
| 20260507170705 | 52 | 205 | 4.0 | 7.0 | 0.00 | 0.34 | 0.09 | 85 | 1014.4 |
| 20260507170216 | 52 | 229 | 3.0 | 6.0 | 0.00 | 0.34 | 0.09 | 86 | 1014.4 |
| 20260507165205 | 52 | 253 | 3.0 | 6.0 | 0.00 | 0.34 | 0.09 | 86 | 1014.5 |
| 20260507164705 | 52 | 279 | 3.0 | 6.0 | 0.00 | 0.34 | 0.09 | 85 | 1014.5 |
| 20260507164207 | 52 | 229 | 3.0 | 6.0 | 0.00 | 0.34 | 0.09 | 86 | 1014.4 |
| 20260507163705 | 52 | 205 | 3.0 | 6.0 | 0.00 | 0.34 | 0.09 | 86 | 1014.5 |
| 20260507163206 | 52 | 233 | 3.0 | 6.0 | 0.00 | 0.34 | 0.09 | 86 | 1014.5 |
| 20260507162706 | 52 | 236 | 3.0 | 8.0 | 0.00 | 0.34 | 0.09 | 86 | 1014.5 |
| 20260507161205 | 52 | 248 | 3.0 | 6.0 | 0.00 | 0.34 | 0.09 | 85 | 1014.4 |
| 20260507160715 | 52 | 207 | 3.0 | 5.0 | 0.00 | 0.34 | 0.09 | 84 | 1014.5 |
| 20260507160205 | 52 | 240 | 2.0 | 5.0 | 0.00 | 0.34 | 0.09 | 85 | 1014.5 |
| 20260507155704 | 52 | 274 | 2.0 | 6.0 | 0.00 | 0.34 | 0.09 | 86 | 1014.4 |
| 20260507155206 | 52 | 314 | 2.0 | 6.0 | 0.00 | 0.34 | 0.09 | 86 | 1014.4 |
| 20260507154706 | 51 | 269 | 3.0 | 6.0 | 0.00 | 0.34 | 0.09 | 86 | 1014.5 |
| 20260507154206 | 51 | 277 | 2.0 | 6.0 | 0.00 | 0.34 | 0.09 | 87 | 1014.5 |
| 20260507153705 | 51 | 257 | 2.0 | 5.0 | 0.00 | 0.34 | 0.09 | 88 | 1014.5 |
| 20260507153205 | 51 | 306 | 2.0 | 5.0 | 0.00 | 0.34 | 0.09 | 88 | 1014.5 |
| 20260507152705 | 51 | 239 | 2.0 | 7.0 | 0.00 | 0.34 | 0.09 | 88 | 1014.4 |
| 20260507152205 | 51 | 258 | 3.0 | 7.0 | 0.00 | 0.34 | 0.09 | 87 | 1014.4 |
| 20260507151705 | 51 | 274 | 3.0 | 7.0 | 0.00 | 0.34 | 0.09 | 88 | 1014.4 |
| 20260507151205 | 51 | 253 | 3.0 | 6.0 | 0.00 | 0.34 | 0.09 | 89 | 1014.3 |
| 20260507150705 | 50 | 207 | 4.0 | 7.0 | 0.00 | 0.34 | 0.09 | 88 | 1014.4 |
| 20260507150205 | 51 | 259 | 4.0 | 7.0 | 0.00 | 0.34 | 0.09 | 87 | 1014.3 |
| 20260507145705 | 51 | 300 | 4.0 | 8.0 | 0.00 | 0.34 | 0.09 | 86 | 1014.4 |
| 20260507145208 | 51 | 231 | 5.0 | 9.0 | 0.00 | 0.34 | 0.09 | 86 | 1014.4 |
| 20260507144206 | 51 | 250 | 5.0 | 10.0 | 0.00 | 0.34 | 0.09 | 86 | 1014.3 |
| 20260507143707 | 50 | 250 | 6.0 | 10.0 | 0.00 | 0.34 | 0.09 | 87 | 1014.3 |
| 20260507143205 | 50 | 255 | 6.0 | 9.0 | 0.00 | 0.34 | 0.09 | 87 | 1014.4 |
| 20260507142705 | 50 | 234 | 6.0 | 9.0 | 0.00 | 0.34 | 0.09 | 88 | 1014.5 |
| 20260507142206 | 50 | 252 | 5.0 | 9.0 | 0.00 | 0.34 | 0.09 | 88 | 1014.5 |
| 20260507141708 | 49 | 231 | 5.0 | 10.0 | 0.00 | 0.34 | 0.09 | 89 | 1014.4 |
| 20260507141206 | 49 | 220 | 5.0 | 10.0 | 0.00 | 0.34 | 0.09 | 88 | 1014.4 |
| 20260507140705 | 49 | 248 | 6.0 | 11.0 | 0.00 | 0.34 | 0.09 | 87 | 1014.3 |
| 20260507135705 | 50 | 243 | 6.0 | 11.0 | 0.00 | 0.34 | 0.09 | 87 | 1014.3 |
| 20260507135206 | 50 | 252 | 6.0 | 10.0 | 0.00 | 0.34 | 0.09 | 87 | 1014.3 |
| 20260507134705 | 50 | 288 | 6.0 | 10.0 | 0.00 | 0.34 | 0.09 | 87 | 1014.3 |
| 20260507134205 | 50 | 252 | 5.0 | 10.0 | 0.00 | 0.34 | 0.09 | 87 | 1014.3 |
| 20260507133705 | 50 | 238 | 4.0 | 8.0 | 0.00 | 0.34 | 0.09 | 88 | 1014.3 |
| 20260507133206 | 49 | 252 | 4.0 | 10.0 | 0.00 | 0.34 | 0.09 | 88 | 1014.2 |
| 20260507132706 | 49 | 312 | 5.0 | 10.0 | 0.00 | 0.34 | 0.09 | 88 | 1014.3 |
| 20260507132205 | 49 | 315 | 5.0 | 10.0 | 0.00 | 0.34 | 0.09 | 87 | 1014.3 |
| 20260507131705 | 50 | 281 | 4.0 | 13.0 | 0.00 | 0.34 | 0.09 | 87 | 1014.2 |
| 20260507131205 | 50 | 310 | 4.0 | 13.0 | 0.00 | 0.34 | 0.09 | 87 | 1014.2 |
| 20260507130705 | 50 | 302 | 5.0 | 13.0 | 0.00 | 0.34 | 0.09 | 87 | 1014.2 |
| 20260507130205 | 50 | 284 | 5.0 | 9.0 | 0.00 | 0.34 | 0.09 | 86 | 1014.1 |
| 20260507125705 | 51 | 252 | 4.0 | 11.0 | 0.00 | 0.34 | 0.09 | 87 | 1014.0 |
| 20260507125204 | 51 | 314 | 5.0 | 11.0 | 0.00 | 0.34 | 0.09 | 86 | 1013.9 |
| 20260507124714 | 51 | 248 | 6.0 | 11.0 | 0.00 | 0.34 | 0.09 | 85 | 1013.9 |
| 20260507124205 | 51 | 272 | 5.0 | 11.0 | 0.00 | 0.34 | 0.09 | 86 | 1013.9 |
| 20260507123205 | 51 | 308 | 6.0 | 11.0 | 0.00 | 0.34 | 0.09 | 87 | 1013.8 |
| 20260507122706 | 51 | 264 | 7.0 | 11.0 | 0.00 | 0.34 | 0.09 | 88 | 1013.7 |
| 20260507121205 | 50 | 252 | 4.0 | 9.0 | 0.00 | 0.34 | 0.09 | 89 | 1013.6 |
| 20260507120205 | 49 | 314 | 5.0 | 10.0 | 0.00 | 0.34 | 0.09 | 89 | 1013.6 |
| 20260507115705 | 49 | 233 | 5.0 | 10.0 | 0.00 | 0.34 | 0.09 | 89 | 1013.6 |
| 20260507115205 | 49 | 219 | 5.0 | 12.0 | 0.00 | 0.34 | 0.09 | 89 | 1013.6 |
| 20260507114705 | 49 | 284 | 5.0 | 12.0 | 0.00 | 0.34 | 0.09 | 89 | 1013.6 |
| 20260507114206 | 49 | 309 | 5.0 | 9.0 | 0.00 | 0.34 | 0.09 | 90 | 1013.6 |
| 20260507113706 | 49 | 219 | 5.0 | 9.0 | 0.00 | 0.34 | 0.09 | 90 | 1013.6 |
| 20260507113205 | 49 | 274 | 4.0 | 10.0 | 0.00 | 0.34 | 0.09 | 90 | 1013.6 |
| 20260507112706 | 48 | 269 | 5.0 | 13.0 | 0.00 | 0.34 | 0.09 | 90 | 1013.5 |
| 20260507112206 | 48 | 300 | 6.0 | 14.0 | 0.00 | 0.34 | 0.09 | 90 | 1013.6 |
| 20260507111706 | 48 | 255 | 7.0 | 14.0 | 0.00 | 0.34 | 0.09 | 90 | 1013.5 |
| 20260507111206 | 48 | 241 | 7.0 | 12.0 | 0.00 | 0.34 | 0.09 | 90 | 1013.5 |
| 20260507110205 | 48 | 238 | 7.0 | 11.0 | 0.00 | 0.34 | 0.09 | 90 | 1013.5 |
| 20260507105706 | 48 | 283 | 6.0 | 11.0 | 0.00 | 0.34 | 0.09 | 90 | 1013.5 |
| 20260507105206 | 48 | 297 | 6.0 | 11.0 | 0.00 | 0.34 | 0.09 | 91 | 1013.4 |
| 20260507104205 | 48 | 243 | 6.0 | 12.0 | 0.00 | 0.34 | 0.09 | 91 | 1013.4 |
| 20260507103705 | 49 | 238 | 6.0 | 12.0 | 0.00 | 0.34 | 0.09 | 92 | 1013.4 |
| 20260507103208 | 48 | 222 | 7.0 | 12.0 | 0.00 | 0.34 | 0.09 | 93 | 1013.4 |
| 20260507102705 | 48 | 259 | 6.0 | 11.0 | 0.00 | 0.34 | 0.09 | 93 | 1013.4 |
| 20260507102206 | 48 | 285 | 6.0 | 11.0 | 0.00 | 0.34 | 0.09 | 93 | 1013.4 |
| 20260507101705 | 48 | 231 | 5.0 | 11.0 | 0.01 | 0.34 | 0.09 | 93 | 1013.4 |
| 20260507101205 | 48 | 243 | 6.0 | 12.0 | 0.01 | 0.34 | 0.09 | 94 | 1013.3 |
| 20260507100205 | 47 | 231 | 6.0 | 12.0 | 0.01 | 0.34 | 0.09 | 94 | 1013.3 |
| 20260507095705 | 47 | 217 | 5.0 | 7.0 | 0.01 | 0.34 | 0.09 | 94 | 1013.2 |
| 20260507095205 | 47 | 276 | 3.0 | 6.0 | 0.01 | 0.34 | 0.09 | 94 | 1013.2 |
| 20260507094705 | 47 | 283 | 3.0 | 6.0 | 0.01 | 0.34 | 0.09 | 94 | 1013.1 |
| 20260507093205 | 47 | 286 | 4.0 | 9.0 | 0.01 | 0.34 | 0.09 | 94 | 1013.0 |
| 20260507092705 | 47 | 309 | 4.0 | 8.0 | 0.01 | 0.34 | 0.09 | 94 | 1012.7 |
| 20260507092206 | 47 | 284 | 4.0 | 7.0 | 0.00 | 0.33 | 0.09 | 94 | 1012.7 |
| 20260507091225 | 47 | 278 | 3.0 | 7.0 | 0.00 | 0.33 | 0.09 | 94 | 1012.7 |
| 20260507090705 | 47 | 222 | 3.0 | 5.0 | 0.00 | 0.33 | 0.09 | 94 | 1012.6 |
| 20260507090205 | 47 | 231 | 2.0 | 5.0 | 0.00 | 0.33 | 0.09 | 94 | 1012.6 |
| 20260507085705 | 47 | 284 | 3.0 | 5.0 | 0.00 | 0.33 | 0.09 | 94 | 1012.5 |
| 20260507085206 | 47 | 295 | 3.0 | 6.0 | 0.00 | 0.33 | 0.09 | 94 | 1012.5 |
| 20260507084705 | 47 | 272 | 2.0 | 8.0 | 0.00 | 0.33 | 0.09 | 94 | 1012.3 |
| 20260507084205 | 47 | 302 | 3.0 | 8.0 | 0.00 | 0.33 | 0.09 | 94 | 1012.3 |
| 20260507083205 | 47 | 316 | 5.0 | 9.0 | 0.00 | 0.33 | 0.09 | 94 | 1012.2 |
| 20260507082705 | 47 | 279 | 5.0 | 11.0 | 0.00 | 0.33 | 0.09 | 94 | 1012.2 |
| 20260507081706 | 47 | 300 | 5.0 | 11.0 | 0.00 | 0.33 | 0.09 | 94 | 1012.0 |
| 20260507081205 | 47 | 312 | 4.0 | 10.0 | 0.00 | 0.33 | 0.09 | 94 | 1012.0 |
| 20260507080705 | 47 | 257 | 4.0 | 7.0 | 0.00 | 0.33 | 0.09 | 94 | 1012.0 |
| 20260507080205 | 47 | 286 | 4.0 | 9.0 | 0.00 | 0.33 | 0.09 | 94 | 1011.9 |
| 20260507075705 | 47 | 274 | 4.0 | 9.0 | 0.00 | 0.33 | 0.09 | 94 | 1011.9 |
| 20260507075205 | 47 | 269 | 4.0 | 11.0 | 0.00 | 0.33 | 0.09 | 94 | 1011.9 |
| 20260507074705 | 47 | 274 | 5.0 | 11.0 | 0.00 | 0.33 | 0.09 | 94 | 1011.8 |
| 20260507074206 | 47 | 324 | 4.0 | 7.0 | 0.00 | 0.33 | 0.09 | 94 | 1011.7 |
| 20260507073705 | 47 | 258 | 4.0 | 7.0 | 0.00 | 0.33 | 0.09 | 94 | 1011.6 |
| 20260507073205 | 47 | 32 | 4.0 | 6.0 | 0.00 | 0.33 | 0.09 | 94 | 1011.5 |
| 20260507072705 | 47 | 264 | 3.0 | 8.0 | 0.00 | 0.33 | 0.09 | 94 | 1011.4 |
| 20260507072206 | 47 | 236 | 3.0 | 8.0 | 0.00 | 0.33 | 0.09 | 94 | 1011.4 |
| 20260507071205 | 47 | 277 | 4.0 | 8.0 | 0.00 | 0.33 | 0.09 | 94 | 1011.2 |
| 20260507070705 | 48 | 262 | 4.0 | 8.0 | 0.01 | 0.33 | 0.09 | 94 | 1011.1 |
| 20260507070205 | 48 | 269 | 4.0 | 7.0 | 0.01 | 0.33 | 0.09 | 94 | 1011.1 |
| 20260507065705 | 48 | 276 | 3.0 | 9.0 | 0.01 | 0.33 | 0.09 | 94 | 1011.2 |
| 20260507064706 | 48 | 279 | 5.0 | 9.0 | 0.01 | 0.33 | 0.09 | 94 | 1011.2 |
| 20260507064205 | 48 | 250 | 5.0 | 8.0 | 0.01 | 0.33 | 0.09 | 94 | 1011.1 |
| 20260507063705 | 47 | 243 | 5.0 | 8.0 | 0.02 | 0.33 | 0.09 | 94 | 1011.0 |
| 20260507062705 | 47 | 250 | 4.0 | 8.0 | 0.02 | 0.33 | 0.09 | 94 | 1010.9 |
| 20260507061705 | 47 | 224 | 4.0 | 8.0 | 0.02 | 0.33 | 0.09 | 94 | 1010.9 |
| 20260507061208 | 47 | 271 | 4.0 | 8.0 | 0.01 | 0.32 | 0.08 | 94 | 1010.9 |
| 20260507060705 | 47 | 262 | 3.0 | 7.0 | 0.01 | 0.32 | 0.08 | 94 | 1010.7 |
| 20260507060205 | 47 | 269 | 3.0 | 6.0 | 0.01 | 0.32 | 0.08 | 94 | 1010.6 |
| 20260507055705 | 47 | 321 | 3.0 | 6.0 | 0.01 | 0.32 | 0.08 | 94 | 1010.5 |
| 20260507055205 | 47 | 300 | 4.0 | 6.0 | 0.01 | 0.32 | 0.08 | 94 | 1010.4 |
| 20260507054705 | 47 | 233 | 3.0 | 6.0 | 0.01 | 0.32 | 0.08 | 94 | 1010.4 |
| 20260507054205 | 47 | 269 | 3.0 | 6.0 | 0.00 | 0.31 | 0.07 | 94 | 1010.4 |
| 20260507053705 | 47 | 222 | 3.0 | 6.0 | 0.00 | 0.31 | 0.07 | 94 | 1010.4 |
| 20260507052705 | 47 | 264 | 3.0 | 8.0 | 0.00 | 0.31 | 0.07 | 94 | 1010.3 |
| 20260507052206 | 47 | 238 | 3.0 | 8.0 | 0.00 | 0.31 | 0.07 | 94 | 1010.3 |
| 20260507051733 | 47 | 243 | 3.0 | 4.0 | 0.00 | 0.31 | 0.07 | 94 | 1010.2 |
| 20260507051205 | 47 | 305 | 2.0 | 4.0 | 0.00 | 0.31 | 0.07 | 94 | 1010.1 |
| 20260507050705 | 47 | 286 | 2.0 | 6.0 | 0.00 | 0.31 | 0.07 | 94 | 1010.0 |
| 20260507050205 | 47 | 283 | 3.0 | 6.0 | 0.01 | 0.31 | 0.07 | 94 | 1010.0 |
| 20260507045705 | 47 | 309 | 3.0 | 6.0 | 0.01 | 0.31 | 0.07 | 94 | 1009.8 |
| 20260507045205 | 47 | 300 | 3.0 | 6.0 | 0.01 | 0.31 | 0.07 | 94 | 1009.7 |
| 20260507044705 | 47 | 291 | 3.0 | 6.0 | 0.01 | 0.31 | 0.07 | 94 | 1009.6 |
| 20260507044206 | 47 | 264 | 3.0 | 7.0 | 0.02 | 0.31 | 0.07 | 94 | 1009.6 |
| 20260507043705 | 47 | 293 | 3.0 | 7.0 | 0.02 | 0.31 | 0.07 | 94 | 1009.5 |
| 20260507043205 | 47 | 308 | 3.0 | 7.0 | 0.02 | 0.31 | 0.07 | 94 | 1009.5 |
| 20260507042705 | 47 | 295 | 3.0 | 5.0 | 0.02 | 0.31 | 0.07 | 94 | 1009.5 |
| 20260507042205 | 47 | 240 | 3.0 | 5.0 | 0.02 | 0.31 | 0.07 | 94 | 1009.4 |
| 20260507041706 | 47 | 257 | 3.0 | 6.0 | 0.02 | 0.31 | 0.07 | 94 | 1009.4 |
| 20260507041205 | 47 | 259 | 3.0 | 6.0 | 0.03 | 0.31 | 0.07 | 94 | 1009.4 |
| 20260507040706 | 47 | 284 | 3.0 | 6.0 | 0.03 | 0.31 | 0.07 | 94 | 1009.3 |
| 20260507035705 | 47 | 227 | 2.0 | 5.0 | 0.03 | 0.31 | 0.06 | 94 | 1009.0 |
| 20260507035208 | 47 | 302 | 2.0 | 5.0 | 0.04 | 0.31 | 0.06 | 93 | 1009.0 |
| 20260507034705 | 47 | 297 | 2.0 | 5.0 | 0.04 | 0.31 | 0.06 | 93 | 1009.0 |
| 20260507034206 | 48 | 238 | 2.0 | 5.0 | 0.03 | 0.30 | 0.06 | 94 | 1009.0 |
| 20260507033705 | 48 | 236 | 3.0 | 5.0 | 0.03 | 0.30 | 0.06 | 94 | 1009.0 |
| 20260507032705 | 48 | 258 | 2.0 | 6.0 | 0.02 | 0.29 | 0.05 | 94 | 1009.0 |
| 20260507031705 | 48 | 248 | 3.0 | 7.0 | 0.02 | 0.29 | 0.05 | 93 | 1008.9 |
| 20260507031205 | 48 | 281 | 3.0 | 7.0 | 0.02 | 0.28 | 0.04 | 93 | 1008.9 |
| 20260507030205 | 48 | 309 | 3.0 | 7.0 | 0.01 | 0.28 | 0.03 | 94 | 1008.7 |
| 20260507025206 | 48 | 302 | 3.0 | 8.0 | 0.00 | 0.27 | 0.02 | 94 | 1008.7 |
| 20260507024705 | 48 | 276 | 3.0 | 8.0 | 0.00 | 0.27 | 0.02 | 94 | 1008.7 |
| 20260507024206 | 48 | 319 | 5.0 | 9.0 | 0.00 | 0.27 | 0.02 | 94 | 1008.7 |
| 20260507023705 | 48 | 233 | 5.0 | 9.0 | 0.00 | 0.27 | 0.02 | 93 | 1008.7 |
| 20260507021706 | 48 | 262 | 5.0 | 10.0 | 0.01 | 0.27 | 0.02 | 93 | 1008.4 |
| 20260507020705 | 49 | 250 | 4.0 | 8.0 | 0.01 | 0.27 | 0.02 | 93 | 1008.3 |
| 20260507015705 | 49 | 191 | 5.0 | 9.0 | 0.01 | 0.27 | 0.02 | 93 | 1008.1 |
| 20260507014705 | 49 | 269 | 4.0 | 8.0 | 0.01 | 0.27 | 0.02 | 93 | 1008.1 |
| 20260507014206 | 49 | 240 | 5.0 | 8.0 | 0.01 | 0.27 | 0.02 | 93 | 1008.1 |
| 20260507013705 | 49 | 277 | 4.0 | 8.0 | 0.01 | 0.27 | 0.02 | 93 | 1008.1 |
| 20260507013204 | 49 | 257 | 4.0 | 8.0 | 0.01 | 0.27 | 0.02 | 93 | 1008.1 |
| 20260507011706 | 49 | 233 | 4.0 | 9.0 | 0.00 | 0.26 | 0.02 | 93 | 1008.0 |
| 20260507005705 | 49 | 286 | 7.0 | 11.0 | 0.02 | 0.26 | 0.02 | 93 | 1008.0 |
| 20260507005206 | 49 | 252 | 7.0 | 11.0 | 0.02 | 0.26 | 0.02 | 93 | 1007.9 |
| 20260507004205 | 49 | 248 | 7.0 | 11.0 | 0.03 | 0.26 | 0.02 | 93 | 1008.0 |
| 20260507003705 | 49 | 208 | 6.0 | 10.0 | 0.04 | 0.26 | 0.02 | 93 | 1007.9 |
| 20260507003205 | 50 | 203 | 6.0 | 13.0 | 0.04 | 0.26 | 0.02 | 93 | 1007.9 |
| 20260507002706 | 50 | 239 | 7.0 | 13.0 | 0.05 | 0.26 | 0.02 | 93 | 1007.9 |
| 20260507001705 | 50 | 250 | 6.0 | 10.0 | 0.05 | 0.25 | 0.01 | 93 | 1007.8 |
| 20260507001231 | 50 | 255 | 5.0 | 8.0 | 0.05 | 0.25 | 0.01 | 93 | 1007.9 |
| 20260507000705 | 51 | 250 | 4.0 | 10.0 | 0.04 | 0.24 | 0.00 | 93 | 1007.9 |
| 20260507000206 | 51 | 264 | 5.0 | 10.0 | 0.04 | 0.24 | 0.24 | 93 | 1008.0 |
| 20260506235705 | 51 | 222 | 6.0 | 10.0 | 0.03 | 0.24 | 0.24 | 93 | 1007.9 |
| 20260506235205 | 51 | 219 | 5.0 | 9.0 | 0.03 | 0.23 | 0.23 | 93 | 1007.9 |
| 20260506234705 | 51 | 226 | 5.0 | 9.0 | 0.03 | 0.23 | 0.23 | 93 | 1007.9 |
| 20260506234204 | 51 | 283 | 6.0 | 9.0 | 0.03 | 0.22 | 0.22 | 92 | 1007.8 |
| 20260506233205 | 51 | 271 | 4.0 | 9.0 | 0.04 | 0.22 | 0.22 | 92 | 1007.8 |
| 20260506232731 | 51 | 214 | 4.0 | 9.0 | 0.04 | 0.21 | 0.21 | 92 | 1007.7 |